Regional Weather Roundup
Issued by NWS

Home | Current Version | Previous Version | Graphics & Text | Print | Product List | Glossary On
Versions: 1 2 3 4 5 6 7 8 9 10 11 12 13 14 15 16 17 18 19 20 21 22 23 24 25 26 27 28 29 30 31 32 33 34 35 36 37 38 39 40 41 42 43 44 45 46 47 48 49 50
000
ASUS43 KFSD 231710
RWRSD

WEATHER ROUNDUP FOR SOUTH DAKOTA
NATIONAL WEATHER SERVICE SIOUX FALLS SD
1200 PM CDT MON MAY 23 2016

NOTE: "FAIR" INDICATES FEW OR NO CLOUDS BELOW 12,000 FEET WITH NO
SIGNIFICANT WEATHER AND/OR OBSTRUCTIONS TO VISIBILITY.


SDZ001>005-009-010-012>017-231800-
NORTHWEST AND NORTH CENTRAL SOUTH DAKOTA

CITY           SKY/WX    TMP DP  RH WIND       PRES   REMARKS
BUFFALO          N/A     68  29  23 NW12G21   29.68F
FAITH            N/A     69  40  34 NE7       29.72F
MOBRIDGE       SUNNY     72  49  44 W5        29.68F
$$

SDZ012>016-024>037-041>051-057-063-072>074-231800-
SOUTHWEST AND SOUTH CENTRAL SOUTH DAKOTA

CITY           SKY/WX    TMP DP  RH WIND       PRES   REMARKS
RAPID CTY ARPT SUNNY     69  40  34 VRB5      29.76F
PIERRE         SUNNY     69  51  52 SW8       29.71F
CUSTER         SUNNY     57  29  34 SW9G17    29.85S
ELLSWORTH AFB  SUNNY     68  41  37 SE7       29.75F
PHILIP         SUNNY     70  47  43 SW8       29.73F
PINE RIDGE     SUNNY     67  37  33 W12G21    29.80F
WINNER         FAIR      70  50  49 SW8       29.75S
$$

SDZ004>011-016>023-039-040-231800-
NORTHEAST SOUTH DAKOTA

CITY           SKY/WX    TMP DP  RH WIND       PRES   REMARKS
ABERDEEN       SUNNY     74  55  51 SW13      29.71S
WATERTOWN      PTSUNNY   70  59  68 SW14      29.75S
BROOKINGS      CLOUDY    65  60  84 SW16      29.77R
SISSETON         N/A     73  56  54 SW14      29.69S
$$

SDZ017-020-022-023-036>040-048>070-231800-
SOUTHEAST SOUTH DAKOTA

CITY           SKY/WX    TMP DP  RH WIND       PRES   REMARKS
SIOUX FALLS    CLOUDY    68  63  84 SW8       29.77S
HURON          SUNNY     71  56  58 S10       29.74F
CHAMBERLAIN    CLOUDY    69  55  59 SW7       29.75S
MITCHELL       PTSUNNY   69  56  62 SW9       29.76S
YANKTON        PTSUNNY   68  63  83 W8        29.77S
$$

ABBREVIATIONS USED IN REMARKS
   TC - TEMPERATURE IN CELSIUS
  WCI - WIND CHILL INDEX
   HX - HEAT INDEX
  VSB - VISIBILITY





USA.gov is the U.S. government's official web portal to all federal, state and local government web resources and services.